www.pogodaiklimat.ru

Погода и климат >> Архив погоды >> Узбекистан >> Каракалпакия


ПОГОДА в Каракалпакии

  • Прогноз погоды в Каракалпакии
  • Монитор погоды в Каракалпакии
  • Климат города

АРХИВ ПОГОДЫ в Каракалпакии

Время (UTC), дата Ветер
(напр.,м/с)
 
Видим.   Явления Облачность Т
(С)
Тd
(С)
f
(%)
Тe
(С)
Тes
(С)
Комфортность P
(гПа)
Po
(гПа)
Тmin
(С)
Tmax
(С)
R
(мм)
R24
(мм)
S
(см)
18 11.12 ЮВ 6 н/о ясно -4.4 -6.7 84 -12 -12 1024.0 1007.6 +1.8
21 11.12 ЮВ 6 н/о ясно -5.0 -7.5 83 -13 -13 1023.4 1007.1
00 12.12 В 6 н/о 4/0
[Ci sp]
-4.2 -5.8 89 -12 -12 1023.4 1007.1
03 12.12 В 5 н/о гроза, ливневой дождь ?/? -3.4 -4.2 94 -10 -10 1022.8 1006.6
06 12.12 ЮВ 7 1000 м переохл. туман ?/? -1.8 -2.1 98 -10 -10 1023.2 1007.0 -5.0
09 12.12 В 6 4000 м дымка {туман} 10/10 600 м
[St]
-0.8 -1.1 98 -8 -8 1021.8 1005.7
12 12.12 В 6 20 км 10/10 600 м
[St]
-0.1 -0.4 98 -7 -7 1020.6 1004.5
15 12.12 В 4 н/о 10/10 600 м
[Sc]
-1.3 -1.6 98 -7 -7 1020.7 1004.6 +0.3
18 12.12 В 6 н/о 10/10 600 м
[Sc]
-1.3 -1.6 98 -9 -9 1019.7 1003.6 +0.3
21 12.12 В 7 н/о 10/10 600 м
[Sc]
-1.9 -2.2 98 -10 -10 1019.2 1003.0
00 13.12 В 7 н/о 10/10 600 м
[Sc]
-1.9 -2.2 98 -10 -10 1019.1 1002.9
03 13.12 В 7 н/о 10/10 600 м
[Sc]
-1.3 -1.6 98 -9 -9 1017.6 1001.6
06 13.12 В 7 20 км 10/10 600 м
[Sc]
-0.5 -0.8 98 -8 -8 1017.4 1001.4 -1.9
09 13.12 ЮВ 7 20 км 10/10 600 м
[Sc]
+1.1 +0.8 98 -6 -6 1016.7 1000.8
12 13.12 ЮВ 12
{17}
20 км 10/10 600 м
[Sc]
+1.6 +1.3 98 -7 -7 1014.3 998.4
15 13.12 ЮВ 10 н/о 10/10 600 м
[Sc]
+1.3 +1.0 98 -7 -7 1016.4 1000.5 +1.8
18 13.12 ЮВ 7 н/о 10/10 600 м
[Sc]
+1.6 +1.3 98 -5 -5 1016.2 1000.3 +1.8
21 13.12 Ю 5 н/о 10/10 600 м
[Sc]
+1.8 +1.5 98 -4 -4 1016.6 1000.7
00 14.12 Ю 2 н/о 10/10 600 м
[Sc]
+3.0 +2.7 98 -0 -0 1017.3 1001.6
03 14.12 З 2 н/о 10/10 600 м
[Sc]
+2.4 +2.2 99 -1 -1 1020.1 1004.3
06 14.12 З 4 20 км 10/10 600 м
[Sc]
+1.3 +1.0 98 -4 -4 1023.3 1007.2 +1.6
09 14.12 З 4 20 км 10/10 600 м
[Sc]
+1.4 +0.6 94 -4 -4 1024.1 1008.0
12 14.12 ЮЗ 2 20 км 10/10 600 м
[Sc]
+1.8 +1.5 98 -2 -2 1025.5 1009.5
15 14.12 Ю 2 н/о 10/10 600 м
[Sc]
+1.4 +1.1 98 -2 -2 1026.2 1010.1 +3.0
18 14.12 Ю 1 н/о 8/0
[Ci sp]
+0.2 -0.1 98 -2 -2 1026.9 1010.8 +3.0
21 14.12 ЮЗ 2 н/о 4/0
[Ci sp]
-2.1 -2.4 98 -6 -6 1027.6 1011.4
00 15.12 З 1 н/о 10/0
[Ci sp]
-2.8 -3.2 97 -5 -5 1027.7 1011.5
03 15.12 Ю 1 н/о 10/10 600 м
[Sc]
-3.0 -3.4 97 -5 -5 1028.7 1012.5
06 15.12 штиль 0 20 км 10/6 600 м
[Sc Ci sp]
-1.5 -2.1 96 -3 -2 1029.0 1012.6 -3.3
09 15.12 ЮВ 2 20 км 10/4 600 м
[Sc Ci fib]
+2.4 -0.3 82 -1 +1 1028.4 1012.5
12 15.12 ЮВ 2 20 км 10/4 600 м
[Sc Ci fib]
+3.1 -0.4 78 0 0 1028.7 1012.7
15 15.12 ЮВ 2 н/о 6/0
[Ci sp]
-1.4 -2.6 92 -5 -5 1028.9 1012.7 +3.1
18 15.12 ЮВ 2 н/о 8/0
[Ci sp]
-2.2 -3.7 89 -6 -6 1029.0 1012.7 +3.1
21 15.12 Ю 4 н/о 8/6 600 м
[Sc Ci sp]
-1.1 -2.3 92 -7 -7 1028.6 1012.5
00 16.12 Ю 3 н/о 4/0
[Ci sp]
-1.8 -2.7 94 -7 -7 1028.6 1012.4
03 16.12 Ю 5 н/о ясно -2.3 -3.2 94 -9 -9 1028.6 1012.4
06 16.12 Ю 5 20 км 10/10 600 м
[St]
+0.8 +0.3 96 -5 -5 1028.3 1012.3 -2.9
09 16.12 Ю 5 20 км слабый дождь 10/0 600 м
[As op]
+1.5 +1.5 100 -4 -4 1026.5 1010.5
12 16.12 Ю 5 20 км слабый дождь 10/0 600 м
[As op]
+1.4 +1.4 100 -5 -5 1025.3 1009.3
15 16.12 З 3 н/о слабый снег {дождь} 10/0 600 м
[As op]
-0.4 -0.4 100 -5 -5 1025.4 1009.3 +1.9
18 16.12 З 2 н/о {снег} 10/10 600 м
[Sc]
-2.3 -2.6 98 -7 -7 1025.8 1009.6 +1.9 13
21 16.12 З 2 н/о 10/10 600 м
[Sc]
-3.1 -3.5 97 -7 -7 1025.8 1009.6
00 17.12 СЗ 4 н/о 10/10 600 м
[Sc]
-5.0 -5.7 95 -12 -12 1026.8 1010.4
03 17.12 З 4 н/о 10/10 600 м
[Sc]
-5.4 -5.9 96 -12 -12 1027.1 1010.6 6
06 17.12 СЗ 3 20 км 10/10 600 м
[Sc]
-4.2 -4.7 96 -10 -10 1028.1 1011.7 -5.8 2
09 17.12 З 3 20 км 10/10 600 м
[Sc]
-3.0 -5.0 86 -8 -8 1028.0 1011.8
12 17.12 СЗ 3 20 км 10/10 600 м
[Sc]
-3.6 -4.1 96 -9 -9 1028.1 1011.7
15 17.12 СЗ 2 н/о 10/10 600 м
[Sc]
-3.8 -4.0 99 -8 -8 1030.1 1013.5 -2.4
18 17.12 СЗ 2 н/о 10/10 600 м
[Sc]
-3.1 -3.5 97 -7 -7 1031.5 1015.2 -2.4
21 17.12 В 2 н/о 10/10 600 м
[Sc]
-3.6 -4.1 96 -8 -8 1032.9 1016.4
03 18.12 СВ 2 н/о 10/10 600 м
[Sc]
-5.3 -5.6 98 -10 -10 1032.3 1015.8 6

 

Местоположение метеостанции Каракалпакия (Каракалпакстан, Узбекистан): широта 44.85 долгота 56.33 высота над уровнем моря 126 м.

В архиве по умолчанию представлена погода в Каракалпакии за последнюю неделю. Архивные данные за месяц целиком и за предыдущие месяцы, начиная с января 2011 года, Вы можете получить, выбрав интересующий диапазон дат из раскрывающегося списка и нажав кнопку "Ввод!".


*Определитесь, кто Вы:
робот инопланетянин человек

Внимание! Время в таблицах - всемирное. Для получения местного времени необходимо прибавить поправку, которая в Каракалпакии равна 5 ч.

Смотрите также архив погоды в соседних городах и на ближайших метеорологических станциях:

Погода в Саме (Мангистауская область, Казахстан) (63 км)
Погода в Бейнеу (Мангистауская область, Казахстан) (103 км)
Погода в Жаслыке (Каракалпакстан, Узбекистан) (144 км)
Погода в Опорной (Мангистауская область, Казахстан) (197 км)
Погода в Муйнаке (Каракалпакстан, Узбекистан) (227 км)
Погода в Сай-Утесе (Мангистауская область, Казахстан) (228 км)
Погода в Аккудуке (Мангистауская область, Казахстан) (274 км)
Погода в Кульсары (Атырауская область, Казахстан) (286 км)
Погода в Кунграде (Каракалпакстан, Узбекистан) (286 км)
Погода в Аяккуме (Актюбинская область, Казахстан) (303 км)

Пояснения к столбцам:

Ветер - указаны скорость ветра в м/с - средняя за 10 мин, порывы в срок и между сроками (в фигурных скобках) и направление, откуда дует ветер: С - северный, СВ - северо-восточный, В - восточный, ЮВ - юго-восточный, Ю - южный, ЮЗ - юго-западный, З - западный, СЗ - северо-западный.
Видимость - горизонтальная дальность видимости в метрах или километрах. При видимости от 1 до 10 км при отсутствии осадков обычно наблюдается дымка, при ухудшении видимости до 1 км и менее - туман. В сухую погоду видимость может ухудшаться дымом, пылью или мглою.
Явления - указаны атмосферные явления, наблюдавшиеся в срок или в последний час перед сроком; фигурными скобками обозначены явления, наблюдавшиеся между сроками (за 1-3 часа до срока); квадратными скобками обозначены град или гололедные отложения с указанием их диаметра в мм.
Облачность - указаны через наклонную черту общая и нижняя облачность в баллах и высота нижней границы облаков в метрах; квадратными скобками обозначены формы облаков: Ci - перистые, Cs - перисто-слоистые, Cc - перисто-кучевые, Ac - высококучевые, As - высокослоистые, Sc - слоисто-кучевые, Ns - слоисто-дождевые, Cu - кучевые, Cb - кучево-дождевые. Подробнее классификацию облаков см. в Атласе облаков (PDF).
T - Температура воздуха - температура, измеренная на высоте 2 м над землей.
Td - Температура точки росы - температура, при понижении до которой содержащийся в воздухе водяной пар достигнет насыщения.
f - Относительная влажность воздуха - влажноcть воздуха, измеренная на высоте 2 м над землей.
Te - Эффективная температура - температура, которую ощущает одетый по сезону человек в тени. Характеристика душности погоды. При расчете учитывается влияние влажности воздуха и скорости ветра на теплоощущения человека.
Tes - Эффективная температура на солнце - температура, которую ощущает человек, с поправкой на солнечный нагрев. Характеристика знойности погоды. Зависит от высоты солнца над горизонтом, облачности и скорости ветра. Ночью, в пасмурную погоду, а также при ветре 12 м/с и более поправка равна нулю.
P - Атмосферное давление - приведенное к уровню моря атмосферное давление.
Po - Атмосферное давление - измеренное на уровне метеостанции атмосферное давление.
Tmin - Минимальная температура - минимум температуры воздуха на высоте 2 м над землей.
Tmax - Максимальная температура - максимум температуры воздуха на высоте 2 м над землей.
R - Количество осадков - Количество выпавших осадков за период времени, мм. При наведении курсора мыши на число - период времени, за который выпало указанное количество осадков.
R24 - Количество осадков - Количество выпавших осадков за 24 часа, мм.
S - Снежный покров - Высота снежного покрова, см. При наведении курсора мыши на число - состояние снежного покрова и степень покрытия местности в баллах.